CAPE
1 3 1 1 1 1 1 0 0 1 1 2 2 1 2 0 0 0 0 0 0 0 0 0 0 0 0 0 0 0 0 0 0 0 0 0 0 0 0 0 0 0 3 2 1212
0 1 0 1 0 0 1 1 1 1 1 2 1 1 0 0 0 0 0 0 0 0 0 0 0 0 0 0 0 0 0 0 0 0 0 0 0 0 0 0 0 0 182 788 1065
1 1 0 1 0 0 1 0 1 0 1 1 0 0 0 0 0 0 0 0 0 0 0 0 0 0 0 0 0 0 0 0 0 0 0 0 0 0 0 0 0 0 0 818 1072
1 1 2 0 1 0 0 0 0 1 0 0 0 0 0 0 0 0 0 0 0 0 0 0 0 0 0 0 0 0 0 0 0 0 0 0 0 0 0 0 0 0 0 0 5
0 1 1 0 0 0 0 0 0 0 0 0 0 0 0 0 0 0 0 0 0 0 0 0 0 0 0 0 0 0 0 0 0 0 0 0 0 0 0 0 0 0 0 0 0
1 1 0 0 0 0 0 0 0 0 0 0 0 0 0 0 0 0 0 0 0 0 0 0 0 0 0 0 0 0 0 0 0 0 0 0 0 0 0 0 0 0 0 0 0
0 1 0 0 0 0 0 0 0 0 0 0 0 0 0 0 0 0 0 0 0 0 0 0 0 0 0 0 0 0 0 0 0 0 0 0 0 0 0 0 0 0 0 0 0
0 0 0 0 0 0 0 0 0 0 0 0 0 0 0 0 0 0 0 0 0 0 0 0 0 0 0 0 0 0 0 0 0 0 0 0 0 0 0 0 0 0 0 0 0
0 0 0 0 0 0 0 0 0 0 0 0 0 0 0 0 0 0 0 0 0 0 0 0 0 0 0 0 0 0 0 0 0 0 0 0 0 0 0 0 0 0 0 0 0
0 0 0 0 0 0 0 0 0 0 0 0 0 0 0 0 0 0 0 0 0 0 0 0 0 0 0 0 0 0 0 0 0 0 0 0 0 0 0 0 0 0 0 0 0
0 0 0 0 0 0 0 0 0 0 0 0 0 0 0 0 0 0 0 0 0 0 0 0 0 0 0 0 0 0 0 0 0 0 0 0 0 0 0 0 0 0 0 0 0
0 0 0 0 0 0 0 0 0 0 0 0 0 0 0 0 0 0 0 0 0 0 0 0 0 0 0 0 0 0 0 0 0 0 0 0 0 0 0 0 0 0 0 0 0
0 0 0 0 0 0 0 0 0 0 0 0 0 0 0 0 0 0 0 0 0 0 0 0 0 0 0 0 0 0 0 0 0 0 0 0 0 0 0 0 0 0 0 0 0
0 0 0 0 0 0 0 0 0 0 0 0 0 0 0 0 0 0 3 0 0 0 0 0 0 0 0 0 0 0 0 0 0 0 0 0 0 0 0 0 0 0 0 0 0
0 0 0 0 0 0 0 0 0 0 0 0 0 0 0 0 0 0 0 0 0 0 0 0 0 0 0 0 0 0 0 0 1 0 0 0 0 0 0 0 0 0 0 0 0
0 0 0 0 0 0 0 0 0 0 0 0 0 0 0 0 0 0 0 0 0 0 0 0 0 0 0 0 0 1 2 4 0 0 0 0 0 0 0 0 0 0 0 0 0
0 0 0 0 0 0 0 0 0 0 0 0 0 0 0 0 0 0 0 0 0 0 0 0 0 0 0 0 0 0 4 0 0 0 0 0 0 0 0 0 0 0 0 0 0
0 0 0 0 0 0 0 0 0 0 0 0 0 0 0 0 0 0 0 0 0 0 0 0 1 0 0 0 0 0 0 2 0 0 0 4 0 0 0 0 0 0 0 0 0
0 0 0 0 0 0 0 0 0 0 0 0 0 0 0 0 0 0 0 0 0 0 5 3 0 0 0 0 0 0 0 0 0 0 0 0 0 0 0 0 0 0 0 0 0
0 0 0 0 0 0 0 0 0 0 0 0 0 0 0 0 0 0 0 0 2 8 7 10 0 0 0 0 0 0 0 0 0 0 0 0 0 0 0 0 0 0 0 0 0
0 0 0 0 0 0 0 0 0 0 0 0 0 0 0 0 0 0 0 0 0 7 5 3 2 0 0 0 0 0 0 0 0 0 1 0 0 0 0 0 0 0 0 0 0
0 0 0 0 0 0 0 0 0 0 0 0 0 0 0 0 0 4 0 0 2 19 13 0 2 0 0 0 0 0 0 0 1 0 0 1 0 0 0 0 0 0 0 0 0
0 0 0 0 0 0 0 0 0 0 0 0 0 0 0 0 0 0 0 0 0 13 12 0 1 0 0 0 0 0 4 1 0 0 0 2 0 0 0 0 0 0 0 0 0
0 0 0 0 0 0 0 0 0 0 0 0 0 0 0 0 0 0 0 0 0 0 17 0 4 0 0 0 0 0 0 0 1 0 0 0 0 0 0 0 0 0 0 0 0
0 0 0 0 0 0 0 0 0 0 0 0 0 0 0 0 0 0 0 0 0 0 12 0 0 1 1 0 0 2 2 1 0 0 0 0 0 0 0 0 0 0 0 0 0
0 0 0 0 0 0 0 0 0 0 0 0 0 0 0 0 0 0 0 0 0 0 1 0 0 0 0 0 0 0 0 4 3 1 4 1 0 0 0 0 0 0 0 0 0
0 0 4 0 0 2 0 0 0 0 0 0 0 0 0 0 0 0 0 0 0 0 0 0 0 0 1 0 0 0 0 2 1 6 5 1 4 0 0 0 0 0 0 0 0
CIN
0 0 0 0 0 0 0 0 0 -1 0 0 0 0 0 0 0 0 0 0 0 0 0 0 0 0 0 0 0 0 0 0 0 0 0 0 0 0 0 0 0 0 -31 -39 -208
0 0 0 0 0 0 0 0 0 0 0 0 0 0 0 0 0 0 0 0 0 0 0 0 0 0 0 0 0 0 0 0 0 0 0 0 0 0 0 0 0 0 -60 -180 -249
0 0 0 0 0 0 0 0 0 0 0 0 0 0 0 0 0 0 0 0 0 0 0 0 0 0 0 0 0 0 0 0 0 0 0 0 0 0 0 0 0 0 0 -36 -7
0 0 0 0 0 0 0 0 0 0 0 0 0 0 0 0 0 0 0 0 0 0 0 0 0 0 0 0 0 0 0 0 0 0 0 0 0 0 0 0 0 0 0 0 -32
0 0 0 0 0 0 0 0 0 0 0 0 0 0 0 0 0 0 0 0 0 0 0 0 0 0 0 0 0 0 0 0 0 0 0 0 0 0 0 0 0 0 0 0 0
0 0 0 0 0 0 0 0 0 0 0 0 0 0 0 0 0 0 0 0 0 0 0 0 0 0 0 0 0 0 0 0 0 0 0 0 0 0 0 0 0 0 0 0 0
0 0 0 0 0 0 0 0 0 0 0 0 0 0 0 0 0 0 0 0 0 0 0 0 0 0 0 0 0 0 0 0 0 0 0 0 0 0 0 0 0 0 0 0 0
0 0 0 0 0 0 0 0 0 0 0 0 0 0 0 0 0 0 0 0 0 0 0 0 0 0 0 0 0 0 0 0 0 0 0 0 0 0 0 0 0 0 0 0 0
0 0 0 0 0 0 0 0 0 0 0 0 0 0 0 0 0 0 0 0 0 0 0 0 0 0 0 0 0 0 0 0 0 0 0 0 0 0 0 0 0 0 0 0 0
0 0 0 0 0 0 0 0 0 0 0 0 0 0 0 0 0 0 0 0 0 0 0 0 0 0 0 0 0 0 0 0 0 0 0 0 0 0 0 0 0 0 0 0 0
0 0 0 0 0 0 0 0 0 0 0 0 0 0 0 0 0 0 0 0 0 0 0 0 0 0 0 0 0 0 0 0 0 0 0 0 0 0 0 0 0 0 0 0 0
0 0 0 0 0 0 0 0 0 0 0 0 0 0 0 0 0 0 0 0 0 0 0 0 0 0 0 0 0 0 0 0 0 0 0 0 0 0 0 0 0 0 0 0 0
0 0 0 0 0 0 0 0 0 0 0 0 0 0 0 0 0 0 0 0 0 0 0 0 0 0 0 0 0 0 0 0 0 0 0 0 0 0 0 0 0 0 0 0 0
0 0 0 0 0 0 0 0 0 0 0 0 0 0 0 0 0 0 -22 -2 0 0 0 0 0 0 0 0 0 0 0 0 0 0 0 0 0 0 0 0 0 0 0 0 0
0 0 0 0 0 0 0 0 0 0 0 0 0 0 0 0 0 0 0 0 0 0 0 0 0 0 0 0 0 0 0 0 -9 0 0 0 0 0 0 0 0 0 0 0 0
0 0 0 0 0 0 0 0 0 0 0 0 0 0 0 0 0 0 0 0 0 0 0 0 0 0 0 0 0 -9 -15 -25 0 0 0 0 0 0 0 0 0 0 0 0 0
0 0 0 0 0 0 0 0 0 0 0 0 0 0 0 0 0 0 0 0 0 0 0 0 0 0 0 0 0 0 -18 0 0 0 0 0 0 0 0 0 0 0 0 0 0
0 0 0 0 0 0 0 0 0 0 0 0 0 0 0 0 0 0 0 0 0 0 0 -1 0 0 0 0 0 -6 -3 -41 0 0 0 -38 0 0 0 0 0 0 0 0 0
0 0 0 0 0 0 0 0 0 0 0 0 0 0 0 0 0 0 0 0 0 0 -5 -3 -2 0 0 0 0 0 0 0 -7 0 -15 0 0 0 0 0 0 0 0 0 0
0 0 0 0 0 0 0 0 0 0 0 0 0 0 0 0 0 0 0 0 -9 -34 -57 -7 -1 0 0 0 0 -3 0 -7 0 0 0 0 -32 0 0 0 0 0 0 0 0
0 0 0 0 0 0 0 0 0 0 0 0 0 0 0 0 0 -1 0 0 -7 -29 -69 -19 -1 0 0 0 0 0 0 0 0 -4 -6 0 0 0 0 0 0 0 0 0 0
0 0 0 0 0 0 0 0 0 0 0 0 0 0 0 0 0 -10 0 0 -19 -34 -14 -1 -8 0 0 0 0 0 0 0 -11 0 0 -6 0 0 0 0 0 0 0 0 0
0 0 0 0 0 0 0 0 0 0 0 0 0 0 0 0 0 0 0 0 -17 -26 -5 0 0 0 0 0 0 0 -5 -2 0 0 -6 -3 0 0 0 0 0 0 0 0 0
0 0 0 0 0 0 0 0 0 0 0 0 0 0 0 0 0 0 0 0 0 -16 -29 -6 0 0 -2 0 0 0 0 0 0 0 0 0 0 0 0 0 0 0 0 0 0
0 0 0 0 0 0 0 0 0 0 0 0 0 0 0 0 0 0 0 0 0 0 -22 -1 0 0 0 0 0 0 0 0 0 0 0 0 0 0 0 0 0 0 0 0 0
0 0 0 0 0 0 0 0 0 0 0 0 0 0 0 0 0 0 0 0 0 0 -4 0 0 0 0 0 0 0 0 0 0 0 0 0 0 0 0 0 0 0 0 0 0
-1 -9 -5 0 0 0 0 0 0 0 0 0 0 0 0 0 0 0 0 0 0 0 0 0 0 0 0 0 0 0 0 0 -1 0 0 0 0 0 0 0 0 0 0 0 0
Wind_Speed
16 4 18 24 29 30 31 26 23 23 24 22 23 21 20 19 18 18 20 17 16 19 21 19 19 26 16 16 14 16 30 40 41 41 41 38 39 32 32 31 33 27 38 35 10
14 15 19 18 14 10 14 17 18 20 21 21 22 21 20 21 20 24 19 16 16 19 22 24 24 25 18 17 16 18 28 33 31 36 44 47 42 44 40 39 35 31 27 13 14
9 19 18 12 1 2 11 16 19 21 19 21 20 19 20 18 20 25 19 17 16 18 19 20 20 20 18 18 18 20 29 32 35 38 39 47 45 41 43 42 32 32 26 16 19
13 19 18 12 1 5 11 15 17 18 20 17 17 19 19 22 25 20 17 17 17 18 21 22 22 22 20 21 21 25 29 32 32 33 35 39 40 45 42 43 35 32 28 22 26
11 16 15 13 2 8 12 15 15 17 19 18 19 22 22 25 24 17 17 17 18 19 21 22 22 22 22 21 26 23 26 33 36 37 38 38 40 43 46 41 35 30 28 27 28
13 12 16 18 14 13 17 15 14 16 19 20 20 21 23 26 19 16 18 19 17 19 18 20 20 18 17 21 23 26 34 37 35 37 35 38 41 36 40 35 34 31 29 28 31
14 15 15 15 19 18 18 18 18 17 19 20 21 22 23 24 20 18 17 18 18 19 18 19 18 16 19 24 23 30 37 36 31 29 32 35 44 44 33 37 36 34 31 32 33
15 13 10 10 12 14 17 20 19 17 18 18 19 21 22 20 20 17 17 20 17 16 14 17 19 18 18 23 26 28 28 32 27 31 27 30 48 39 30 36 38 36 33 34 36
17 11 7 9 10 11 13 18 18 16 16 17 20 21 23 22 21 18 16 22 21 19 18 18 19 20 22 24 29 25 32 34 31 26 29 29 48 46 40 40 41 41 37 33 33
20 14 6 6 9 14 17 20 21 19 18 17 19 21 20 25 20 21 16 17 19 20 22 20 21 21 23 23 21 35 38 35 37 30 35 37 51 50 42 43 46 42 40 34 31
26 18 7 7 14 18 22 21 25 20 19 18 18 20 20 21 21 23 19 18 18 21 23 23 20 12 10 18 28 36 39 40 37 35 34 39 46 50 48 47 51 45 43 37 32
24 16 7 15 19 21 22 24 21 19 20 16 15 16 16 20 24 22 17 21 22 23 22 24 11 7 17 14 24 31 36 40 39 34 30 36 44 49 51 52 54 47 46 40 32
29 20 23 23 21 22 23 21 20 19 19 21 19 21 24 23 23 23 17 20 23 21 20 22 13 9 15 17 17 28 31 36 41 37 33 35 44 44 51 49 55 46 45 41 36
38 35 28 25 21 23 24 22 19 18 21 22 25 22 29 25 24 19 18 20 22 22 21 22 15 20 19 17 12 14 21 30 35 35 38 23 51 46 44 48 52 48 44 42 35
43 38 28 24 22 23 24 23 18 18 29 23 23 20 28 26 28 27 20 22 21 19 17 18 20 18 14 13 9 7 21 29 33 34 35 29 37 46 38 45 47 46 44 43 35
41 35 26 23 22 21 23 23 19 23 27 22 23 30 28 24 31 24 22 25 22 18 17 20 12 16 15 14 8 3 17 29 29 29 35 30 36 40 33 32 35 39 35 38 37
44 30 21 22 24 23 25 22 24 27 23 22 26 28 25 28 29 25 29 29 24 27 28 38 24 18 16 14 16 17 8 10 25 26 34 20 33 35 32 29 32 38 36 36 38
46 26 20 18 21 23 26 24 26 22 21 21 21 24 22 28 26 27 28 26 18 22 26 32 33 27 21 12 12 12 7 6 18 22 26 30 33 33 28 27 25 27 27 26 35
42 25 23 24 23 21 27 26 22 22 23 25 23 23 22 25 25 26 25 21 20 20 24 28 22 18 10 13 9 12 10 10 16 18 26 29 31 31 27 26 26 26 27 25 28
34 21 25 35 21 23 25 24 22 21 24 24 24 21 25 27 31 29 26 19 22 17 18 23 16 14 16 16 6 4 11 11 12 18 28 26 27 32 27 28 28 28 29 29 29
30 23 25 36 22 27 24 22 23 21 24 23 22 20 17 21 26 26 20 18 17 19 15 20 17 20 24 17 16 10 10 9 8 19 27 28 25 21 25 28 30 30 31 31 32
29 26 27 31 25 25 25 24 20 22 23 20 18 18 14 19 22 21 18 17 17 18 19 18 20 21 10 7 4 2 3 5 7 11 22 27 33 24 24 26 29 34 31 34 35
32 23 24 27 27 28 26 25 18 21 22 19 19 16 17 19 23 24 19 18 18 17 17 15 15 28 27 16 20 16 9 8 12 17 19 27 30 26 29 28 27 31 34 38 37
29 29 25 24 27 28 31 26 25 21 20 21 16 13 22 18 18 19 21 20 19 15 13 11 13 16 16 11 13 9 7 7 4 12 32 33 34 34 31 32 31 31 36 38 37
28 25 25 25 28 33 30 23 25 30 21 21 19 17 23 20 18 17 23 25 21 18 13 11 13 11 10 15 12 13 10 7 5 6 36 37 39 40 39 38 36 30 36 35 35
28 28 25 28 25 27 30 25 26 31 26 21 22 19 17 15 15 18 20 19 21 22 16 14 17 19 19 9 7 10 6 4 2 3 37 41 41 40 38 36 34 24 29 29 28
24 23 24 25 27 32 29 27 37 30 22 22 25 19 18 15 18 18 16 14 12 15 15 16 19 22 29 31 36 8 15 19 16 15 14 35 30 30 33 34 31 29 31 31 26
Wind_Direction
313 10 42 25 356 346 357 23 32 31 29 34 30 32 33 31 31 36 10 17 18 10 4 359 357 344 354 346 330 313 285 275 272 270 269 272 272 273 277 275 279 287 286 266 228
316 45 41 41 40 56 48 42 41 38 36 36 34 36 37 34 39 20 27 27 22 14 5 351 345 342 343 340 332 305 290 283 281 277 272 267 270 267 268 270 270 284 305 245 202
337 42 45 57 217 71 53 45 42 38 41 41 45 45 41 40 22 13 30 33 28 19 12 2 356 351 338 336 325 313 291 290 286 283 278 268 268 266 263 260 266 275 285 272 252
330 41 45 56 254 64 54 47 44 43 41 49 50 45 44 40 10 26 37 34 26 18 6 358 351 343 335 326 321 307 299 292 292 290 287 277 272 262 260 257 266 271 274 273 259
346 42 47 53 60 57 50 45 46 44 42 44 42 37 37 26 24 36 33 24 18 13 2 354 346 344 333 329 317 307 306 295 291 288 285 281 273 267 259 259 263 268 270 266 264
342 37 47 44 50 52 43 45 45 44 40 40 38 35 32 19 31 33 28 22 16 6 2 0 349 345 337 325 316 307 298 292 294 289 287 281 273 273 260 266 263 267 267 264 265
16 38 46 49 43 43 41 38 36 36 33 35 35 33 29 26 30 27 28 18 13 12 7 2 358 349 337 323 316 301 294 294 297 298 292 289 268 259 271 267 263 266 266 266 267
9 27 41 50 51 47 39 29 28 32 32 32 31 29 27 32 24 25 25 15 21 18 12 3 359 348 336 325 316 308 302 296 302 302 300 294 260 268 280 272 263 265 266 264 267
339 350 22 47 50 45 36 27 28 37 37 33 28 23 19 20 22 25 26 13 13 17 10 2 354 344 334 325 315 313 300 294 303 311 303 293 267 262 281 274 264 264 266 266 266
333 330 349 37 46 38 30 29 33 39 36 32 27 17 17 15 19 16 24 19 14 10 3 1 346 335 328 324 314 304 298 296 296 308 302 289 268 267 277 273 263 265 263 263 265
327 322 322 38 41 32 29 32 25 28 25 24 16 14 7 7 8 4 14 15 12 6 358 355 350 336 316 324 311 300 297 292 295 304 302 294 279 273 272 272 260 262 261 259 261
330 330 3 35 31 31 33 27 29 24 16 23 17 10 8 6 358 360 20 7 5 357 359 351 347 342 335 319 313 305 298 290 294 301 303 298 287 283 272 265 258 259 258 257 257
326 319 27 24 32 33 27 27 26 28 23 18 18 11 5 7 5 5 19 12 0 356 354 344 330 322 340 333 321 305 301 295 292 298 304 300 293 291 279 271 255 255 256 255 250
328 2 22 27 34 28 25 26 26 30 16 17 12 18 9 12 13 19 18 11 2 354 352 346 358 346 325 308 308 275 306 303 299 297 297 316 287 288 278 263 251 249 253 251 250
331 356 22 31 31 27 23 20 31 30 2 14 16 16 4 15 5 10 19 7 357 351 0 347 347 343 334 340 327 275 313 302 300 298 302 307 303 262 279 259 247 246 251 248 250
327 3 24 30 29 28 18 22 37 17 8 15 15 5 7 12 358 6 11 6 3 8 4 347 330 359 3 5 16 306 326 301 305 307 298 305 295 259 265 249 253 252 258 251 250
328 2 25 28 22 20 18 25 16 14 14 14 8 10 10 7 5 11 5 5 11 4 358 328 5 14 15 16 16 19 14 339 308 306 299 320 278 249 263 271 266 258 261 259 250
331 12 22 27 20 17 18 18 11 17 15 8 8 6 10 8 9 6 6 8 21 13 3 345 342 9 12 358 0 349 9 349 323 317 317 296 259 255 270 286 285 279 275 268 253
354 17 23 17 14 22 14 14 17 15 14 8 4 8 12 7 8 5 7 15 18 18 10 352 1 1 14 29 33 28 16 2 324 328 308 293 269 264 263 282 289 285 282 274 266
4 13 18 2 23 20 15 15 14 14 8 8 6 11 1 3 2 6 11 20 12 18 18 356 347 16 14 13 47 57 34 24 356 324 287 266 272 261 272 278 286 285 282 280 273
9 13 11 359 21 11 13 12 10 13 14 11 5 359 4 5 3 6 12 6 17 12 14 3 360 1 7 27 25 39 40 59 119 224 268 277 265 279 282 291 283 280 286 281 279
7 6 3 2 7 9 4 4 9 13 13 14 15 14 2 2 3 4 9 8 1 9 5 10 356 353 339 324 12 15 16 29 18 351 308 290 254 300 293 288 283 283 281 282 284
359 3 4 8 2 357 357 360 13 13 15 18 13 21 17 11 5 1 1 0 9 9 7 12 6 343 356 27 23 24 41 49 358 328 311 288 272 287 276 279 287 283 280 281 283
0 356 360 3 1 355 346 354 359 13 14 16 355 20 11 3 2 355 353 5 3 359 5 15 2 349 350 347 1 342 306 269 273 320 248 239 248 262 278 284 285 285 281 277 279
359 356 358 350 348 341 342 349 352 353 12 8 20 17 358 357 349 1 357 353 358 0 11 15 351 330 284 269 286 289 302 283 255 271 247 257 252 268 271 264 271 291 275 276 273
353 351 354 342 345 343 338 344 345 345 356 5 4 346 349 345 343 330 342 343 351 5 8 6 355 349 340 277 337 289 305 357 9 245 264 261 255 275 267 281 270 303 259 264 269
352 352 349 345 343 333 335 338 327 340 355 349 349 343 350 352 346 317 314 314 326 351 7 9 4 356 337 324 308 20 26 21 18 14 338 274 280 299 291 275 270 277 266 256 260